Location: Newark
(17.9939°S, 31.0481°E)
Time: 18:31:32
(UTC+00:00)

Courier 1B - Pass Details

Date: 16 November 2019
Orbit: 963 x 1209 km, 28.3° (Epoch: 11 December)

Event Time Altitude Azimuth Distance (km) Brightness Sun altitude
Rises 18:34:21 0° 255° (WSW) 4,050 11.7 -31.3°
Reaches altitude 10° 18:37:23 10° 247° (WSW) 3,113 10.9 -31.9°
Maximum altitude 18:44:33 38° 180° (S) 1,750 9.0 -33.2°
Enters shadow 18:47:17 30° 141° (SE) 2,014 9.0 -33.7°
